カタログに戻る

CZ-6 R/B

運用中PO
NORAD 49061·ROCKET BODY·🇨🇳 China

打ち上げ Aug 4, 2021 から Taiyuan Satellite Launch Center

Loading…

次のパス (今後24時間)

TLE

最新Source: Space-Track

元期: Sep 14, 2026, 07:28 UTC

1 49061U 21070C   26257.31133955  .00000206  00000-0  37315-4 0  9993
2 49061  89.0588 200.5612 0210697 194.2984 165.2204 14.48710419270006

AllMySatでCZ-6 R/Bをリアルタイム追跡

Download on the App Store